Regional Weather Roundup
Issued by NWS Midland/Odessa, TX

Skip options and go directly to product.
Home | Oldest Version | Previous Version | Current Version | All | Text Only | Save Text | Print | Product List | Glossary Off

Skip product version selection by date and time.   

344
ASUS44 KMAF 280510
RWRMAF
MIDLAND AREA WEATHER ROUNDUP
NATIONAL WEATHER SERVICE MIDLAND TX
1100 PM CST FRI FEB 27 2015

...IN SOUTHWEST TEXAS AND SOUTHEAST NEW MEXICO...

CITY           SKY/WX    TMP DP  RH WIND       PRES   REMARKS
ALPINE         CLOUDY    26  25  96 NE3       30.13S
ANDREWS        CLOUDY    17  15  95 E14       30.22R WCI   3
ARTESIA        CLOUDY    21  21 100 SE13      30.16S WCI   9
BIG SPRING     CLOUDY    19  16  89 NE8       30.29F WCI   9
CARLSBAD       CLOUDY    24  19  81 SE14      30.16S WCI  12
DRYDEN           N/A     33  31  92 NE10      30.18S WCI  25
FORT STOCKTON  CLOUDY    26  26 100 E12       30.18S FOG     WCI  16
GUAD PASS      CLOUDY    18  15  88 NE21      29.94F FOG     WCI   1
HOBBS          CLOUDY    18  18 100 E13       30.17S FOG     WCI   4
MARFA          CLOUDY    27  25  93 NE7       30.05R WCI  19
MIDLAND AIRPK  CLOUDY    20  18  91 E9        30.25S FOG     WCI   9
MIDLAND INTL   CLOUDY    19  17  92 E14       30.22F FOG     WCI   6
ODESSA         CLOUDY    19  16  88 E13       30.22S FOG     WCI   6
PECOS          CLOUDY    24  23  94 E10       30.22S FOG     WCI  14
PRESIDIO       FAIR      35  29  79 NE17G25   30.06R WCI  24
SEMINOLE       CLOUDY    17  16  94 E10       30.21F FOG     WCI   5
SNYDER         CLOUDY    16  14  93 E12       30.30F FOG     WCI   3
WINK           CLOUDY    23  18  81 E13       30.20S WCI  11
$$
...OTHER STATIONS IN TEXAS...

CITY           SKY/WX    TMP DP  RH WIND       PRES   REMARKS
ABILENE        CLOUDY    20  18  92 NE7       30.34F FOG     WCI  11
AMARILLO       CLOUDY    11   8  88 S13       30.21S WCI  -4
AUSTIN         FRZ DRZL  32  29  88 N15       30.36S WCI  22
BROWNSVILLE    CLOUDY    59  55  87 NW6       30.18F
CORPUS CHRISTI LGT RAIN  45  42  89 NE16      30.25S FOG     WCI  38
DALLAS FTW     FRZ RAIN  26  22  84 NE9       30.44S FOG     WCI  17
DEL RIO        CLOUDY    37  35  92 E13       30.25F WCI  29
EL PASO        PTCLDY    31  21  66 NE7       29.95R WCI  24
HOUSTON INT    PTCLDY    41  31  67 E9        30.36R WCI  35
LUBBOCK        FRZ DRZL  13  12  96 SE10      30.23S WCI   0
SAN ANGELO     CLOUDY    24  22  91 E10       30.30S WCI  14
SAN ANTONIO    LGT RAIN  34  30  85 NE9       30.32S WCI  27
WACO           MIX PCPN  29  25  85 N10       30.41F WCI  20
WICHITA FALLS  NOT AVBL
$$
...OTHER LOCATIONS IN NEW MEXICO...

CITY           SKY/WX    TMP DP  RH WIND       PRES   REMARKS
ALAMAGORDO     PTCLDY    30  23  74 MISG      29.95S
ALBUQUERQUE    LGT SNOW  22  20  92 N9        29.93R VSB 1   WCI  12
CANNON AFB     FLURRIES  12  10  92 SE9       30.13S WCI   0
CLOVIS         CLOUDY    10   9  92 SE9       30.14S WCI  -2
HOLLOMAN AFB   MOCLDY    29  21  69 SW10      29.94S WCI  20
ROSWELL        CLOUDY    22  18  85 SE12      30.14S WCI  10
RUIDOSO        FOG       14  10  85 SE6       29.95F VSB 1/4 WCI   5
SANTA FE       SNOW      16  13  88 S12       29.91R VSB 1/2 WCI   3
TRUTH OR CONSE CLEAR     35  29  78 CALM      29.88R
TUCUMCARI      CLOUDY    15  10  80 S12       30.13S WCI   2
$$

USA.gov is the U.S. government's official web portal to all federal, state and local government web resources and services.